[[{"header":{"parameterUnit":"m.s-1","parameterCategory":1,"la1":30.2991,"la2":30.254,"lo1":-89.0895,"lo2":-89.0444,"dy":0.0017,"dx":0.0017,"nx":28,"ny":28,"refTime":"2023-10-18T03:00:00:Z","depth":0,"parameterNumber":2,"parameterNumberName":"U-component_of_WINDS"},"data":[0,0,0,0,0,0,0,0,0,0,0,0,0,0,0,0,0,0,0,0,0,0,0,0,0,0,0,0,0,0,0,0,0,0,0,0,0,0,0,0,0,0,0,0,0,0,0,0,0,0,0,0,0,0,0,0,0,0,-0.9075,-0.9078,0,-0.9303,-0.9305,-0.9308,-0.9468,-0.947,-0.9471,-0.9472,-0.9706,-0.9711,-0.9716,0,0,0,0,0,0,0,0,0,0,0,0,0,-0.8782,-0.8787,-0.9075,-0.9078,-0.9081,-0.9302,-0.9305,-0.9309,-0.9468,-0.947,-0.9471,-0.9473,-0.9705,-0.9711,-0.9717,0,0,0,0,0,0,0,0,0,0,0,0,0,-0.8949,-0.8788,-0.9075,-0.9187,-0.92,-0.9302,-0.9306,-0.9309,-0.9468,-0.947,-0.9472,-0.9473,-0.9703,-0.971,-0.9718,-0.9726,0,0,-0.9741,-0.9744,0,0,0,0,0,0,0,0,-0.894,-0.896,-0.9168,-0.918,-0.9194,-0.9359,-0.9288,-0.9449,-0.9467,-0.9366,-0.9472,-0.9474,-0.9589,-0.9606,-0.9645,-0.9737,-0.9747,-0.9741,-0.9746,-0.9749,-0.9751,0,0,0,0,0,0,0,-0.8928,-0.8951,-0.9165,-0.9171,-0.9186,-0.9227,-0.9253,-0.9319,-0.9464,-0.9375,-0.9387,-0.9412,-0.9597,-0.9637,-0.9652,-0.9751,-0.9741,-0.9748,-0.9753,-0.9756,-0.9863,-0.9861,0,0,0,0,0,0,-0.8898,-0.894,-0.9158,-0.9172,-0.9069,-0.9231,-0.926,-0.9304,-0.9464,-0.949,-0.941,-0.9418,-0.9623,-0.9643,-0.966,-0.9681,-0.9749,-0.9756,-0.9761,-0.9864,-0.9862,-0.986,0,0,0,0,0,0,-0.8891,-0.8916,-0.9149,-0.906,-0.9092,-0.9234,-0.9282,-0.9308,-0.9348,-0.949,-0.9517,-0.9424,-0.9626,-0.965,-0.9709,-0.9691,-0.976,-0.9767,-0.9866,-0.9864,-0.9861,-0.9721,0,0,0,0,0,0,-0.8882,-0.8913,-0.8917,-0.9059,-0.9096,-0.9192,-0.9281,-0.9311,-0.9361,-0.9374,-0.9511,-0.9536,-0.9629,-0.9697,-0.9716,-0.9703,-0.9773,-0.9868,-0.9865,-0.9862,-0.9727,-0.9714,-0.9702,0,0,0,0,0,-0.8871,-0.8868,-0.8916,-0.8941,-0.9104,-0.9191,-0.9212,-0.9319,-0.9358,-0.9364,-0.9456,-0.9531,-0.969,-0.9701,-0.9725,-0.9713,-0.987,-0.9866,-0.9862,-0.9733,-0.9716,-0.9702,0,0,0,0,0,0,-0.8721,-0.8889,-0.8943,-0.8986,-0.9073,-0.9217,-0.9227,-0.9298,-0.9376,-0.9385,-0.9515,-0.9545,-0.959,-0.9659,-0.9668,-0.9731,-0.979,-0.979,-0.9683,-0.9669,-0.9656,-0.9637,-0.9779,0,0,0,0,0,-0.8692,-0.8748,-0.8892,-0.8916,-0.8957,-0.9084,-0.9126,-0.9201,-0.9296,-0.9334,-0.943,-0.952,-0.9591,-0.9634,-0.9707,-0.974,-0.9771,-0.9744,-0.973,-0.9719,-0.9717,-0.9739,-0.9728,-0.9848,-0.9848,-0.9848,0,0,-0.8634,-0.8733,-0.876,-0.8888,-0.8964,-0.9019,-0.9114,-0.9168,-0.921,-0.9342,-0.9403,-0.9477,-0.9586,-0.9632,-0.9657,-0.969,-0.9692,-0.9714,-0.9704,-0.9709,-0.9734,-0.9723,-0.9713,-0.9845,-0.9846,-0.9846,0,0,-0.8556,-0.8637,-0.8665,-0.874,-0.8853,-0.8939,-0.8945,-0.908,-0.9134,-0.9197,-0.9297,-0.9351,-0.9469,-0.9543,-0.9596,-0.9547,-0.9619,-0.9568,-0.9499,-0.9519,-0.951,-0.9502,-0.9483,-0.9475,-0.9566,-0.9566,-0.9566,0,-0.8469,-0.8555,-0.8671,-0.8719,-0.8772,-0.8895,-0.8925,-0.8992,-0.9123,-0.9158,-0.9194,-0.9346,-0.9428,-0.9492,-0.948,-0.952,-0.9532,-0.9551,-0.9502,-0.9495,-0.949,-0.9473,-0.9466,-0.9559,-0.956,-0.956,-0.9561,0,-0.8443,-0.8501,-0.851,-0.8633,-0.8689,-0.8727,-0.8849,-0.8892,-0.8963,-0.9044,-0.9108,-0.9211,-0.9307,-0.9329,-0.9399,-0.9403,-0.942,-0.9477,-0.9539,-0.9469,-0.9456,-0.9451,-0.9548,-0.9551,-0.9553,-0.9555,0,0,-0.8273,-0.8461,-0.8462,-0.8519,-0.8655,-0.8702,-0.8748,-0.8841,-0.8874,-0.8962,-0.9002,-0.9101,-0.9155,-0.9215,-0.9296,-0.9313,-0.9267,-0.9369,-0.9374,-0.9344,-0.9277,-0.923,-0.9221,-0.9317,-0.9316,-0.9316,-0.9267,0,-0.8213,-0.8299,-0.8405,-0.8454,-0.8509,-0.8628,-0.8668,-0.8755,-0.8834,-0.8893,-0.8981,-0.9047,-0.9114,-0.9151,-0.9175,-0.9267,-0.9254,-0.9273,-0.9355,-0.9357,-0.932,-0.9215,-0.9166,-0.9114,-0.9263,-0.9262,-0.9261,0,-0.8154,-0.8235,-0.8289,-0.842,-0.8448,-0.8481,-0.8575,-0.863,-0.8733,-0.8789,-0.8856,-0.8943,-0.8997,-0.9054,-0.9131,-0.9141,-0.9182,-0.9233,-0.9234,-0.9243,-0.9302,-0.9218,-0.9101,-0.9091,-0.9255,-0.9255,-0.9256,0,-0.8021,-0.8144,-0.8193,-0.8239,-0.8394,-0.8414,-0.848,-0.8585,-0.8634,-0.8718,-0.8751,-0.884,-0.8888,-0.8955,-0.9064,-0.9096,-0.9129,-0.9195,-0.9176,-0.9173,-0.9174,-0.9172,-0.9058,-0.9205,-0.9205,-0.9206,-0.9206,0,-0.7942,-0.797,-0.8135,-0.8164,-0.82,-0.8323,-0.8355,-0.8432,-0.8525,-0.8572,-0.8682,-0.8724,-0.8866,-0.8925,-0.9012,-0.9061,-0.9083,-0.9129,-0.9151,-0.9118,-0.9111,-0.9144,-0.9149,-0.9204,-0.9204,-0.9204,-0.9205,0,-0.7798,-0.791,-0.797,-0.8112,-0.8149,-0.8168,-0.8291,-0.8324,-0.841,-0.8468,-0.8489,-0.8624,-0.8699,-0.8815,-0.8926,-0.8984,-0.9018,-0.9057,-0.8982,-0.8995,-0.8969,-0.8968,-0.8869,-0.8862,-0.9015,-0.9013,-0.9012,0,-0.7738,-0.7762,-0.7907,-0.7946,-0.8008,-0.8069,-0.8121,-0.8244,-0.8293,-0.8413,-0.8432,-0.8516,-0.8589,-0.8705,-0.8813,-0.8898,-0.8937,-0.8897,-0.8951,-0.8916,-0.8934,-0.893,-0.8932,-0.8883,-0.8881,-0.8879,-0.8877,0,-0.7619,-0.7673,-0.7742,-0.783,-0.7888,-0.7964,-0.8045,-0.8071,-0.8213,-0.8263,-0.8341,-0.8398,-0.8511,-0.8593,-0.8693,-0.8763,-0.8843,-0.886,-0.886,-0.8824,-0.8779,-0.88,-0.8945,-0.8861,-0.8862,-0.8864,-0.8865,-0.8865,-0.7514,-0.7541,-0.7646,-0.772,-0.7794,-0.7868,-0.7906,-0.7997,-0.8064,-0.8164,-0.8235,-0.8308,-0.8413,-0.8556,-0.8621,-0.8682,-0.8716,-0.8716,-0.8716,-0.8713,-0.87,-0.8772,-0.8701,-0.8702,-0.8702,-0.8703,-0.8703,0,-0.7398,-0.7473,-0.7539,-0.7649,-0.7707,-0.7779,-0.7873,-0.7916,-0.7979,-0.807,-0.814,-0.823,-0.8311,-0.8426,-0.8515,-0.8541,-0.858,-0.856,-0.8558,-0.8572,-0.8665,-0.8655,-0.8527,-0.8527,-0.8527,-0.8527,-0.8527,-0.8527,-0.7344,-0.7393,-0.746,-0.7548,-0.7623,-0.7695,-0.7742,-0.7811,-0.7884,-0.7979,-0.8046,-0.8121,-0.8222,-0.832,-0.8397,-0.843,-0.8456,-0.8424,-0.8467,-0.855,-0.8566,-0.8581,-0.8572,-0.8429,-0.8429,-0.837,-0.8369,-0.8368]},{"header":{"parameterUnit":"m.s-1","parameterCategory":1,"la1":30.2991,"la2":30.254,"lo1":-89.0895,"lo2":-89.0444,"dy":0.0017,"dx":0.0017,"nx":28,"ny":28,"refTime":"2023-10-18T03:00:00:Z","depth":0,"parameterNumber":3,"parameterNumberName":"V-component_of_WINDS"},"data":[0,0,0,0,0,0,0,0,0,0,0,0,0,0,0,0,0,0,0,0,0,0,0,0,0,0,0,0,0,0,0,0,0,0,0,0,0,0,0,0,0,0,0,0,0,0,0,0,0,0,0,0,0,0,0,0,0,0,-1.7516,-1.7515,0,-1.7435,-1.7434,-1.7433,-1.7358,-1.7357,-1.7356,-1.7355,-1.7271,-1.727,-1.7269,0,0,0,0,0,0,0,0,0,0,0,0,0,-1.7602,-1.7601,-1.7516,-1.7515,-1.7514,-1.7435,-1.7434,-1.7433,-1.7358,-1.7357,-1.7356,-1.7355,-1.7272,-1.727,-1.7268,0,0,0,0,0,0,0,0,0,0,0,0,0,-1.7548,-1.7601,-1.7516,-1.7467,-1.7462,-1.7436,-1.7434,-1.7433,-1.7358,-1.7357,-1.7355,-1.7354,-1.7272,-1.727,-1.7268,-1.7284,0,0,-1.7262,-1.7261,0,0,0,0,0,0,0,0,-1.7551,-1.7545,-1.7475,-1.747,-1.7464,-1.7405,-1.7434,-1.7383,-1.7359,-1.7398,-1.7355,-1.7353,-1.7317,-1.7311,-1.7299,-1.728,-1.7276,-1.7262,-1.726,-1.726,-1.7259,0,0,0,0,0,0,0,-1.7555,-1.7548,-1.7484,-1.7474,-1.7468,-1.7448,-1.7439,-1.7424,-1.7366,-1.7394,-1.7388,-1.738,-1.7314,-1.7301,-1.7296,-1.7275,-1.7262,-1.726,-1.7259,-1.7258,-1.7263,-1.7264,0,0,0,0,0,0,-1.7566,-1.7551,-1.7486,-1.7482,-1.7505,-1.7448,-1.7437,-1.7426,-1.7366,-1.7356,-1.7381,-1.7377,-1.7305,-1.7299,-1.7293,-1.7306,-1.726,-1.7258,-1.7257,-1.7261,-1.7263,-1.7264,0,0,0,0,0,0,-1.7568,-1.7561,-1.749,-1.7515,-1.7504,-1.7448,-1.7435,-1.7425,-1.7412,-1.7356,-1.7345,-1.7379,-1.7304,-1.7296,-1.7286,-1.7303,-1.7257,-1.7255,-1.726,-1.7262,-1.7264,-1.7334,0,0,0,0,0,0,-1.7571,-1.7562,-1.7569,-1.7516,-1.7503,-1.7485,-1.7436,-1.7424,-1.7409,-1.7402,-1.7352,-1.7342,-1.7302,-1.729,-1.7284,-1.7299,-1.7253,-1.7258,-1.7261,-1.7263,-1.733,-1.7338,-1.7345,0,0,0,0,0,-1.7575,-1.7592,-1.7569,-1.7562,-1.751,-1.7486,-1.7479,-1.7434,-1.7411,-1.7416,-1.738,-1.7343,-1.7302,-1.7289,-1.7283,-1.7297,-1.7257,-1.726,-1.7263,-1.7327,-1.7337,-1.7345,0,0,0,0,0,0,-1.7648,-1.7584,-1.7558,-1.7559,-1.7529,-1.7474,-1.7479,-1.7446,-1.7422,-1.7416,-1.736,-1.7349,-1.7346,-1.732,-1.7308,-1.7308,-1.7274,-1.7276,-1.7325,-1.7334,-1.7342,-1.7348,-1.7252,0,0,0,0,0,-1.7664,-1.7651,-1.7596,-1.7601,-1.7587,-1.7536,-1.7524,-1.7492,-1.7458,-1.7445,-1.7408,-1.7376,-1.7355,-1.7343,-1.7321,-1.7326,-1.7313,-1.7332,-1.734,-1.7346,-1.7349,-1.7348,-1.7355,-1.7274,-1.7274,-1.7274,0,0,-1.7697,-1.7661,-1.7656,-1.7615,-1.7588,-1.7575,-1.7526,-1.7514,-1.7504,-1.7443,-1.7431,-1.7403,-1.7364,-1.7361,-1.7358,-1.734,-1.7368,-1.735,-1.7356,-1.7354,-1.7352,-1.7359,-1.7366,-1.7276,-1.7276,-1.7276,0,0,-1.7751,-1.7723,-1.7724,-1.7697,-1.7657,-1.7622,-1.7623,-1.7572,-1.7551,-1.7539,-1.7493,-1.7479,-1.7445,-1.7419,-1.7401,-1.7444,-1.7409,-1.7438,-1.7478,-1.7478,-1.7484,-1.749,-1.7504,-1.751,-1.744,-1.7441,-1.7441,0,-1.7797,-1.7777,-1.7728,-1.772,-1.7703,-1.7647,-1.7647,-1.7623,-1.7578,-1.7567,-1.7547,-1.7502,-1.7472,-1.7462,-1.7472,-1.746,-1.7458,-1.7444,-1.7487,-1.7492,-1.7496,-1.751,-1.7515,-1.7444,-1.7444,-1.7444,-1.7443,0,-1.7835,-1.7822,-1.7827,-1.7785,-1.7768,-1.7764,-1.7714,-1.7703,-1.7672,-1.7639,-1.7626,-1.7588,-1.7557,-1.7552,-1.7521,-1.7537,-1.7527,-1.7498,-1.7463,-1.7509,-1.752,-1.7525,-1.745,-1.7448,-1.7447,-1.7446,0,0,-1.7934,-1.7864,-1.7867,-1.7847,-1.7797,-1.7785,-1.7778,-1.7748,-1.7739,-1.7709,-1.7701,-1.7673,-1.7646,-1.7626,-1.7591,-1.7591,-1.7626,-1.7562,-1.756,-1.7575,-1.764,-1.7662,-1.7669,-1.7603,-1.7604,-1.7605,-1.7643,0,-1.7979,-1.7964,-1.7919,-1.7917,-1.7903,-1.7849,-1.7843,-1.7811,-1.778,-1.7763,-1.7728,-1.7709,-1.7675,-1.7662,-1.766,-1.7623,-1.7639,-1.7619,-1.7594,-1.7594,-1.7606,-1.7675,-1.7698,-1.7737,-1.7648,-1.7648,-1.7649,0,-1.8031,-1.8004,-1.8001,-1.7951,-1.7944,-1.7939,-1.7907,-1.7892,-1.7854,-1.7832,-1.7809,-1.777,-1.7758,-1.7726,-1.7708,-1.7696,-1.7683,-1.7663,-1.7663,-1.7659,-1.7625,-1.7673,-1.7748,-1.7754,-1.7656,-1.7655,-1.7655,0,-1.8102,-1.8066,-1.8059,-1.8043,-1.7985,-1.7983,-1.7958,-1.792,-1.7904,-1.7876,-1.7865,-1.7836,-1.782,-1.7797,-1.7752,-1.7732,-1.7739,-1.7703,-1.7719,-1.772,-1.7723,-1.7723,-1.7798,-1.7715,-1.7715,-1.7715,-1.7715,0,-1.8158,-1.8158,-1.809,-1.8086,-1.8084,-1.8032,-1.8031,-1.8001,-1.7967,-1.7955,-1.7906,-1.7896,-1.7836,-1.7819,-1.7783,-1.7773,-1.7766,-1.7747,-1.7737,-1.7751,-1.7754,-1.7742,-1.7738,-1.7716,-1.7716,-1.7716,-1.7715,0,-1.8238,-1.8193,-1.8181,-1.8127,-1.8113,-1.8114,-1.8067,-1.806,-1.8026,-1.8012,-1.8005,-1.7951,-1.7928,-1.788,-1.7844,-1.7819,-1.7818,-1.7801,-1.7831,-1.7825,-1.7844,-1.7843,-1.7913,-1.7919,-1.7833,-1.7834,-1.7835,0,-1.8276,-1.8275,-1.8221,-1.8209,-1.8187,-1.817,-1.8153,-1.8102,-1.8087,-1.8043,-1.8041,-1.8014,-1.799,-1.7955,-1.7912,-1.7884,-1.7866,-1.7892,-1.7861,-1.7875,-1.7865,-1.7866,-1.7865,-1.7899,-1.7901,-1.7901,-1.7902,0,-1.8349,-1.8327,-1.8305,-1.8276,-1.8258,-1.8233,-1.8204,-1.8198,-1.8139,-1.8124,-1.81,-1.8081,-1.8044,-1.8017,-1.7982,-1.7956,-1.7919,-1.7912,-1.7914,-1.7929,-1.7946,-1.7937,-1.785,-1.7911,-1.791,-1.791,-1.7909,-1.7909,-1.8409,-1.8405,-1.8366,-1.8344,-1.8317,-1.8291,-1.8282,-1.8246,-1.8225,-1.8191,-1.8162,-1.814,-1.8101,-1.805,-1.8026,-1.8008,-1.799,-1.7993,-1.7994,-1.7996,-1.8001,-1.7949,-1.8001,-1.8001,-1.8,-1.8,-1.8,0,-1.8479,-1.8451,-1.8431,-1.8393,-1.8375,-1.8342,-1.8309,-1.8296,-1.8278,-1.8245,-1.8222,-1.8193,-1.8167,-1.8122,-1.8091,-1.8085,-1.8067,-1.8079,-1.8079,-1.8073,-1.8019,-1.802,-1.8094,-1.8094,-1.8094,-1.8094,-1.8094,-1.8094,-1.8513,-1.8504,-1.8477,-1.8454,-1.8426,-1.8405,-1.8388,-1.8364,-1.8337,-1.8308,-1.8286,-1.8257,-1.8218,-1.8184,-1.8158,-1.8145,-1.8136,-1.8153,-1.8135,-1.8086,-1.8077,-1.8069,-1.8069,-1.8152,-1.8152,-1.819,-1.8191,-1.8191]}]]